User: anonymous   Login
Location: Unspecified
(0.0000°N, 0.0000°E)
Time: 00:01:28
(UTC+00:00)
Language:

STARLINK-30831 - Orbit

View from above orbital plane
View from above orbital plane
View from above satellite
View from above satellite

Ground track
Ground track

The orbit is defined by the following mean orbital elements,

1 58153U          26145.21169117 +.00000000 +00000-0 +12562-4 0 00001
2 58153  53.1612 224.2846 0001173  89.5560 270.5576 15.30187434    03
Epoch (UTC): 25 May 2026 05:04:50
Eccentricity: 0.0001173
inclination: 53.1612°
perigee height: 474 km
apogee height: 476 km
right ascension of ascending node: 224.2846°
argument of perigee: 89.5560°
revolutions per day: 15.30187434
mean anomaly at epoch: 270.5576°

The dashed part of the orbit path shows where the satellite is in the earth's shadow,  

DLR